World > North America > United States > Florida   City of Miami, FL

Miami, Florida Regional Weather

Lat: 25.77N, Lon: 80.2W
Wx Zone: FLZ074
Warning NWS WEATHER ALERT - (More Info. Click Here) Warning
Feedback

Miami, FL Regional Weather

Expires:202004012100;;420654
ASUS42 KTBW 012018
RWRFL 
FLORIDA REGIONAL WEATHER ROUNDUP
NATIONAL WEATHER SERVICE TAMPA BAY RUSKIN FL
400 PM EDT WED APR 01 2020

NOTE: "FAIR" INDICATES FEW OR NO CLOUDS BELOW 12,000 FEET WITH NO
SIGNIFICANT WEATHER AND/OR OBSTRUCTIONS TO VISIBILITY.


FLZ067-068-071>074-168-172>174-012100-
SOUTHEAST FLORIDA 
  
CITY           SKY/WX    TMP DP  RH WIND       PRES   REMARKS
W PALM BEACH   FAIR      78  58  49 NE14      29.80S                  
BOCA RATON     SUNNY     82  55  39 NW13G24   29.79F                  
FT LAUDER-EXEC FAIR      82  57  42 NW13      29.79S                  
FT LAUDERDALE  FAIR      83  55  38 NW14      29.78S                  
POMPANO BEACH  FAIR      81  53  37 N10       29.79S                  
PEMBROKE PINES FAIR      86  52  30 NW13G23   29.80F                  
OPA LOCKA      FAIR      86  56  35 NW10      29.79S                  
MIAMI          FAIR      87  52  29 W9G17     29.78F                  
WEST KENDALL   FAIR      89  55  31 NW16      29.78S                  
HOMESTEAD      FAIR      88  59  37 W14G22    29.76F                  

STATION/POSITION SKY/WX   TEMP    WIND        PRES    WAVE   SWELL
                          AIR SEA DIR/SP/G            HT/PER HT/PER
                          (F)     (DEG/KT/KT) (MB)    (FT/S) (FT/S)
VIRGINIA KEY               84 83  280/  6/ 10 1008.8
LAKE WORTH                 71 77   20/ 17/ 20 1008.2
FOWEY ROCKS                80 78  330/  9/ 10 1008.9F
SETTLEMENT POINT           71     330/ 18/ 20 1009.6R

$$

  

SKY/WX - Weather  TMP - Temperature  DP - Dew Point  RH - Relative Humidity
WIND - Wind Direction/Speed PRES - Barometric Pressure VSB - Visibility
WCI - Wind Chill Index E13G22 Wind - East Wind 13 mph/Gusts of 22 mph
Miami Weather Map
UTC Time: 4/1/2020, 21:12
Your Time: